Regional Weather Roundup
Issued by NWS

Home | Current Version | Previous Version | Text Only | Print | Product List | Glossary Off
Versions: 1 2 3 4 5 6 7 8 9 10 11 12 13 14 15 16 17 18 19 20 21 22 23 24 25 26 27 28 29 30 31 32 33 34 35 36 37 38 39 40 41 42 43 44 45 46 47 48 49 50

000
ASUS43 KBIS 111620
RWRND

NORTH DAKOTA REGIONAL WEATHER ROUNDUP
NATIONAL WEATHER SERVICE BISMARCK ND
1100 AM CDT FRI JUL 11 2014

NOTE: "FAIR" INDICATES FEW OR NO CLOUDS BELOW 12,000 FEET WITH NO
SIGNIFICANT WEATHER AND/OR OBSTRUCTIONS TO VISIBILITY.


NDZ001>003-009>011-017-111700-
NORTHWEST NORTH DAKOTA

CITY           SKY/WX    TMP DP  RH WIND       PRES   REMARKS
WILLISTON      CLOUDY    70  51  51 N15       30.07R
MINOT          PTSUNNY   71  57  61 NW14G24   30.00R
MINOT AFB      PTSUNNY   70  56  61 NW16      29.99R
$$

NDZ018>021-031>035-040>046-111700-
SOUTHWEST NORTH DAKOTA

CITY           SKY/WX    TMP DP  RH WIND       PRES   REMARKS
BISMARCK       SUNNY     79  63  57 N16G23    29.99R
DICKINSON      MOSUNNY   72  56  57 N9        30.05R
GARRISON         N/A     70  61  73 N8        30.00F
HETTINGER ARPT MOSUNNY   76  61  59 N22       30.04R
$$

NDZ004>008-012>016-024-026-027-054-111700-
NORTHEAST NORTH DAKOTA

CITY           SKY/WX    TMP DP  RH WIND       PRES   REMARKS
GRAND FORKS    MOSUNNY   78  68  71 N9        29.87R
GRND FRKS AFB  SUNNY     80  71  76 N13       29.89R
DEVILS LAKE    MOSUNNY   75  54  46 N13       29.94R
$$

NDZ022-023-025-028>030-036>039-047>053-111700-
SOUTHEAST NORTH DAKOTA

CITY           SKY/WX    TMP DP  RH WIND       PRES   REMARKS
FARGO          MOSUNNY   81  72  74 NW7       29.87R
JAMESTOWN      MOSUNNY   79  66  64 N10       29.93R
$$



USA.gov is the U.S. government's official web portal to all federal, state and local government web resources and services.